Regional Weather Roundup
Issued by NWS

Home | Current Version | Previous Version | Graphics & Text | Print | Product List | Glossary Off
Versions: 1 2 3 4 5 6 7 8 9 10 11 12 13 14 15 16 17 18 19 20 21 22 23 24 25 26 27 28 29 30 31 32 33 34 35 36 37 38 39 40 41 42 43 44 45 46 47 48 49 50

000
ASUS43 KMPX 271901
RWRMN
WEATHER ROUNDUP FOR MINNESOTA
NATIONAL WEATHER SERVICE TWIN CITIES/CHANHASSEN MN
200 PM CDT TUE JUN 27 2017


NOTE: "FAIR" INDICATES FEW OR NO CLOUDS BELOW 12,000 FEET WITH NO
SIGNIFICANT WEATHER AND/OR OBSTRUCTIONS TO VISIBILITY. N/A MEANS
CURRENT SKY AND/OR WEATHER CONDITIONS ARE NOT AVAILABLE.

MNZ060>063-068>070-272000-
   Twin Cities Metro

CITY           SKY/WX    TMP DP  RH WIND       PRES   REMARKS
TWIN CITIES    PTSUNNY   74  41  30 SW10G22   29.99F
ST PAUL        SUNNY     74  46  36 S13       29.99F
CRYSTAL        MOSUNNY   74  42  31 S10G23    29.97F
BLAINE         MOSUNNY   75  45  33 S14       29.98F
LAKEVILLE      SUNNY     73  45  35 S6        29.99F
EDEN PRAIRIE   MOSUNNY   75  43  31 S15       29.97F
SOUTH ST PAUL  SUNNY     74  42  30 S9G21     29.98F
LAKE ELMO      FAIR      73  48  40 SW12G18   30.00F
$$
MNZ001>005-007-008-013>017-022>024-027-028-272000-
   Northwest Minnesota

CITY           SKY/WX    TMP DP  RH WIND       PRES   REMARKS
BEMIDJI        MOSUNNY   72  45  37 S17       29.85F
HALLOCK        MOSUNNY   75  46  35 S17G23    29.73F
ROSEAU         CLOUDY    73  48  40 S13G21    29.79F
WARROAD        MOSUNNY   72  48  43 S8        29.80F
CROOKSTON      SUNNY     75  45  33 S22       29.77F
FOSSTON        MOSUNNY   70  46  43 S15G25    29.83F
DETROIT LAKES  MOSUNNY   72  41  33 S21G26    29.85F
MOORHEAD       CLOUDY    73  41  31 S17G24    29.82S
PARK RAPIDS    SUNNY     74  40  29 S15G25    29.87F
MAHNOMEN       FAIR      72  46  39 S14G22    29.82F
$$
MNZ006-009>011-018-025>026-272000-
   North Central Minnesota

CITY           SKY/WX    TMP DP  RH WIND       PRES   REMARKS
BAUDETTE       SUNNY     71  46  40 S12       29.82F
FLAG ISLAND    MOSUNNY   72  52  49 S8        29.80F
INTL FALLS     SUNNY     73  46  38 SW8       29.84F
WASKISH        CLOUDY    70  46  43 S6        29.84F
BIG FORK       SUNNY     73  46  38 S9G18     29.87F
LONGVILLE      SUNNY     73  45  35 MISG      29.90F
GRAND RAPIDS   SUNNY     70  45  40 S13G20    29.91F
CRANE LAKE     MOSUNNY   70  43  37 SW7G18    29.89F
ORR            MOSUNNY   70  41  35 SW7       29.86F
COOK           MOSUNNY   70  43  37 SW13G18   29.90F
WALKER         FAIR      70  46  41 S13G18    29.86F
$$
MNZ012-019>021-037-272000-
   Northeast Minnesota

CITY           SKY/WX    TMP DP  RH WIND       PRES   REMARKS
DULUTH         MOSUNNY   72  45  37 SW12      29.94F
ELY            CLOUDY    70  43  37 SW10G20   29.90F
HIBBING        SUNNY     71  43  36 SW9G25    29.90F
EVELETH        MOSUNNY   73  35  24 SW15G24   29.92F
DULUTH HARBOR  MOSUNNY   73  45  35 SW14G20   29.93F
TWO HARBORS    CLOUDY    75  52  43 SW20      29.91F
SILVER BAY     MOSUNNY   72  46  40 S16       29.91F
GRAND MARAIS     N/A     54  46  74 W7        29.92F
G MARAIS ARPRT MOSUNNY   66  41  39 S12G18    29.93F
$$
MNZ029>031-032-039>041-046>048-054>057-064-272000-
   West Central Minnesota

CITY           SKY/WX    TMP DP  RH WIND       PRES   REMARKS
FERGUS FALLS   CLOUDY    72  43  35 S24       29.83F
WHEATON        CLOUDY    73  43  33 SE14G23   29.84F
MORRIS         MOSUNNY   75  43  31 S20G25    29.86F
ALEXANDRIA     CLOUDY    70  43  37 S17       29.91F
ELBOW LAKE     FAIR      71  44  37 S23       29.86F
WADENA         PTSUNNY   72  45  37 S15G25    29.88F
GLENWOOD       CLOUDY    72  43  35 S18       29.92F
APPLETON       MOSUNNY   75  41  29 S12G22    29.87F
BENSON         PTSUNNY   73  39  29 SW16G25   29.91F
ORTONVILLE     MOSUNNY   75  45  33 S15G22    29.85F
MADISON        SUNNY     79  43  27 S16G26    29.86F
WILLMAR        FAIR      75  45  33 S7G24     29.93F
$$
MNZ033>034-036-042>043-049>051-058-059-272000-
   Central Minnesota

CITY           SKY/WX    TMP DP  RH WIND       PRES   REMARKS
ST CLOUD       MOSUNNY   73  40  30 S14G24    29.95F
SAUK CENTRE    FAIR      72  43  35 S15       29.92F
PAYNESVILLE    CLOUDY    74  40  29 S9G20     29.94F
AITKIN         SUNNY     72  45  37 S10G21    29.91F
PINE RIVER     SUNNY     72  46  40 SW15G23   29.93F
BRAINERD       CLOUDY    73  42  32 S21       29.92F
STAPLES        MOSUNNY   72  39  30 S15       29.90F
LONG PRAIRIE   FAIR      70  43  37 SE15G22   29.92F
LITTLE FALLS   MOSUNNY   73  36  25 S15G21    29.94F
LITCHFIELD     MOSUNNY   73  46  38 S6        29.95F
BUFFALO        CLOUDY    73  39  28 S10G17    29.98F
MAPLE LAKE     MOSUNNY   75  44  32 S12       29.97F
HUTCHINSON     MOSUNNY   74  46  36 S10G17    29.97F
$$
MNZ037-044-045-052-053-272000-
   East Central Minnesota

CITY           SKY/WX    TMP DP  RH WIND       PRES   REMARKS
PRINCETON      MOSUNNY   77  45  31 S14G20    29.96F
MORA           SUNNY     70  41  35 SW9G16    29.98F
CAMBRIDGE      SUNNY     75  52  43 S10G17    29.95F
RUSH CITY      SUNNY     72  43  35 S8G20     29.96F
MOOSE LAKE     SUNNY     70  45  40 SW9G18    29.93F
HINCKLEY       FAIR      73  46  38 S15       29.96F
CLOQUET        SUNNY     72  39  30 S12G18    29.94F
MCGREGOR       SUNNY     70  41  35 S16G24    29.94F
$$
MNZ071>073-080-081-089-090-097-098-272000-
   Southwest Minnesota

CITY           SKY/WX    TMP DP  RH WIND       PRES   REMARKS
MONTEVIDEO     MOSUNNY   75  45  33 SW13G23   29.90F
GRANITE FALLS  SUNNY     78  46  32 SE21      29.91F
CANBY          SUNNY     78  42  27 S15G25    29.89F
MARSHALL       SUNNY     75  44  33 S20       29.90F
REDWOOD FALLS  SUNNY     77  39  25 S20G28    29.92F
OLIVIA         MOSUNNY   73  43  33 S13G23    29.93F
PIPESTONE      SUNNY     75  45  33 S23       29.91F
WINDOM         SUNNY     75  43  31 S16G22    29.96F
WORTHINGTON    SUNNY     73  46  38 S20G29    29.95F
JACKSON        SUNNY     73  41  31 S18G26    29.98F
TRACY          SUNNY     75  46  35 S15G26    29.92F
SLAYTON        SUNNY     73  44  34 S15G25    29.95F
$$
MNZ065>067-074>077-082>085-091>093-272000-
   South Central Minnesota

CITY           SKY/WX    TMP DP  RH WIND       PRES   REMARKS
NEW ULM        PTSUNNY   75  41  29 S16G24    29.96F
ST JAMES       MOSUNNY   75  43  31 S16G24    29.98F
FAIRMONT       MOSUNNY   74  44  34 S18       29.98F
GLENCOE        MOSUNNY   74  46  36 S10G20    29.97F
FARIBAULT      MOSUNNY   75  41  29 S10G17    30.00F
OWATONNA       MOSUNNY   73  43  33 S14G20    30.01F
WASECA         MOSUNNY   73  41  31 S13G20    30.01F
ALBERT LEA     SUNNY     73  39  29 S14G20    30.01F
$$
MNZ078>079-086>088-094>096-272000-
   Southeast Minnesota

CITY           SKY/WX    TMP DP  RH WIND       PRES   REMARKS
ROCHESTER      SUNNY     72  42  34 S13G23    30.04F
RED WING       SUNNY     75  37  25 S7G17     30.00F
STANTON        SUNNY     74  41  30 SW12G17   29.99F
DODGE CENTER   CLOUDY    73  39  29 S12       30.02F
WINONA         SUNNY     73  43  33 S5        30.04S
AUSTIN         SUNNY     72  43  35 S12       30.02F
PRESTON        SUNNY     71  42  34 SW12G17   30.05F
$$
ABBREVIATIONS USED IN REMARKS
   TC - TEMPERATURES IN CELSIUS
  WCI - WIND CHILL INDEX
   HX - HEAT INDEX
  VSB - VISIBILITY
$$




USA.gov is the U.S. government's official web portal to all federal, state and local government web resources and services.